Regional Weather Roundup
Issued by NWS Green Bay, WI

Home | Current Version | Previous Version | Text Only | Print | Product List | Glossary On
Versions: 1 2 3 4 5 6 7 8 9 10 11 12 13 14 15 16 17 18 19 20 21 22 23 24 25 26 27 28 29 30 31 32 33 34 35 36 37 38 39 40 41 42 43 44 45 46 47 48 49 50
000
ASUS43 KGRB 300211
RWRGRB

NORTH-CENTRAL AND NORTHEAST WISCONSIN REGIONAL WEATHER ROUNDUP
NATIONAL WEATHER SERVICE GREEN BAY WI
900 PM CDT SUN MAY 29 2016

WIZ005-009-010>012-018-019-300300-
NORTH CENTRAL WISCONSIN

CITY           SKY/WX    TMP DP  RH WIND       PRES   REMARKS
IRONWOOD       MOCLDY    61  55  82 W5        29.88S
MANITOWISH WTR NOT AVBL
ARBOR VITAE    PTCLDY    60  57  91 CALM        N/A
EAGLE RIVER      N/A     59  53  82 W3        29.93R
LAND O LAKES   CLEAR     60  58  94 CALM      29.93R
RHINELANDER    PTCLDY    63  54  72 W6        29.93S
PHILLIPS       PTCLDY    62  57  83 CALM      29.92S
ANTIGO         CLEAR     62  55  79 CALM      29.93S
TOMAHAWK       MOCLDY    59  55  87 CALM      29.94R
MERRILL        CLEAR     63  55  77 W3        29.94R
$$

WIZ013-073-300300-
NORTHEAST WISCONSIN

CITY           SKY/WX    TMP DP  RH WIND       PRES   REMARKS
IRON MOUNTAIN  MOCLDY    63  57  81 W8        29.88R
MARINETTE      CLOUDY    68  63  83 CALM      29.89R
OCONTO         PTCLDY    69  60  74 W7        29.89R
$$

WIZ017-030-035>037-045-300300-
CENTRAL WISCONSIN

CITY           SKY/WX    TMP DP  RH WIND       PRES   REMARKS
MEDFORD        CLEAR     63  57  82 W3        29.93F
WAUSAU         CLEAR     66  55  67 W6        29.92R
MOSINEE        CLEAR     64  55  72 W5        29.95R
MARSHFIELD     CLEAR     66  56  70 SW3       29.93S
WISC RAPIDS    CLEAR     66  54  65 CALM      29.95R
STEVENS POINT  CLEAR     66  56  69 CALM      29.94S
WAUPACA        CLEAR     71  56  58 W5        29.93R
SHAWANO        CLEAR     70  58  66 W5        29.91R
CLINTONVILLE   CLEAR     68  55  64 W5        29.91S
WAUTOMA        CLEAR     69  56  62 W6        29.94R
$$

WIZ038-039-048-051-300300-
FOX VALLEY

CITY           SKY/WX    TMP DP  RH WIND       PRES   REMARKS
NWS GREEN BAY  CLEAR     70  59  68 W7        29.90S
APPLETON       PTCLDY    66  55  68 W7        29.90F
OSHKOSH        CLEAR     68  57  68 VRB3      29.92R
FOND DU LAC    CLEAR     70  58  65 SW6       29.93R
$$

WIZ022-050-052-300300-
EAST CENTRAL WISCONSIN

CITY           SKY/WX    TMP DP  RH WIND       PRES   REMARKS
EPHRAIM        CLOUDY    63  60  92 NW5       29.88S
STURGEON BAY   NOT AVBL
MANITOWOC      PTCLDY    71  60  68 SW3       29.92R
SHEBOYGAN        N/A     67  59  75 SW5       29.92R
$$

LMZ563-521-522-541>543-300300-
LAKESHORE

STATION/POSITION TIME  TEMP    WIND        PRES    VSBY  WAVE
                       AIR SEA DIR/SP/G                  HT/PER
                 (UTC) (F)     (DEG/KT/KT) (MB)    (MI)  (FT/S)
SHEBOYGAN LKSHOR 0200   73     230/  4/  5 1013.3R
KEWAUNEE LKSHORE 0100                      1011.6R
NORTHPORT PIER   0120   63     290/  8/ 21 1011.9R
N MID LAKE BUOY  0150   51 48  210/  8/ 10 1011.3R         3/ 5
CHAMBERS ISLAND  0100   65     250/  2/  9 1011.5R
MENOMINEE LKSHOR 0100                      1010.4R
$$




USA.gov is the U.S. government's official web portal to all federal, state and local government web resources and services.